STARLINK-2703, 48452

Orbit data source: Space-Track

STARLINK-2703, 48452 is a payload satellite owned by SpaceX/Seattle (US) in LEO that was launched on Sun, 09 May 2021 UTC via an FALCON 9 launch vehicle from the Air Force Eastern Test Range (AFETR). Payload-class satellites include a variety of spacecraft equipped with specific instruments for various scientific and technological missions. These include communications satellites like Starlink; space stations such as the ISS; scientific satellites like the Hubble; Earth observation satellites from companies like Planet Labs, Umbra, and HawkEye 360; GPS; miniature CubeSats for education and research; and military/defense satellites.

Loading next visibility...
Identifier
48452, 2021-040AA
Orbit
LEO
Country
Flag of USUS
Related business
Manufacturer
SpaceX/Seattle
Mission
Operational Commercial Communications
Bus & Motor
STARLINK, Unknown motor
Mass
260 kg wet, ~248 kg dry
Launch date (UTC)
2021-05-09 (5 years ago)
Launch vehicle
FALCON 9
Launch site
Air Force Eastern Test Range (AFETR)
Object type
Payload
Rocket body
Debris
Shape & HBR
Box + 1 Pan, 10.1 m
Radar Cross Section
13.562 m², Large (>1 m²)

Expand to show TLE details & history
Last TLE update: 2 days ago

TLE from 2 days ago
0 STARLINK-2703
1 48452U 21040AA  26171.42751756  .00001518  00000-0  60670-4 0  9992
2 48452  53.1599  60.1675 0001199  90.5370 269.5769 15.31708300282426
Epoch: 2026-06-20T10:15Z
TLE epoch observation values (Epoch: 2026-06-20T10:15:37.517Z)
Latitude
0.00001°
Longitude
-2.38111°
Altitude
471.622 km
Speed
7.631 km/s
True Right ascension
04h 00m 40s
True Declination
0° 00' 00"
Sunlit
Object was in daylight at epoch
Visualization orbit readout
Latitude
Unknown
Longitude
Unknown
Altitude
Unknown
Speed
Unknown
Apparent Right ascension
Unknown
Apparent Declination
Unknown
Sunlit
N/A
Visualization observer readout
Local Sidereal Time
21:28:52
Azimuth
Unknown
Elevation
Unknown
Doppler factor
Unknown
Orbital elements
Apogee altitude
471.793 km
Perigee altitude
470.151 km
Semi-major axis
6,849.109 km
Eccentricity
0.00012
Inclination
53.1599°
RAAN
60.1675°
Arg. of periapsis
90.537°
True anomaly
269.56316°
Mean anomaly
269.5769°
Eccentric anomaly
269.57003°
Mean motion
3.82906 °/min
Orbital period
94.02 mins
BSTAR
0.00006067
Loading maneuver chart data...
Computing Atmospheric mass density...

Documentation

Showing up to 5 results
|